Glenwood, MN

7:50 PM CDT on May 21, 2018 (GMT -0500)
Glenwood Municipal

Weather History for KGHW - November, 2013

Change the Weather History Date:

Friday, November 15, 2013

  Actual Average Record
Temperature  
Mean Temperature 38 °F -  
Max Temperature 53 °F 38 °F 66 °F (1953)
Min Temperature 24 °F 20 °F -4 °F (2014)
Degree Days  
Heating Degree Days 26    
Moisture  
Dew Point 33 °F    
Average Humidity 79    
Maximum Humidity 100    
Minimum Humidity 47    
Precipitation  
Precipitation 0.00 in - - ()
Sea Level Pressure  
Sea Level Pressure 29.69 in    
Wind  
Wind Speed 8 mph (South)    
Max Wind Speed 22 mph    
Max Gust Speed 30 mph    
Visibility 8 miles    
Events Fog    
Averages and records for this station are not official NWS values.
T = Trace of Precipitation, MM = Missing Value Source: NWS Daily Summary

Daily Weather History Graph

Daily Weather History Graph

Search for Another Location

Airport or City:

Astronomy

Nov. 15, 2013 Rise Set
Actual Time 7:21 AM CST 4:50 PM CST
Civil Twilight 6:48 AM CST 5:22 PM CST
Nautical Twilight 6:12 AM CST 5:58 PM CST
Astronomical Twilight 5:37 AM CST 6:33 PM CST
Moon 3:52 PM CST (11/15) 5:13 AM CST (11/15)
Length of Visible Light 10h 33m
Length of Day
9h 29m
Waxing Gibbous, 96% of the Moon is Illuminated
Nov 15
Waxing Gibbous
Nov 17
Full
Nov 25
Last Quarter
Dec 2
New
Dec 9
First Quarter

Hourly Weather History & Observations

Time (CST) Temp. Windchill Dew Point Humidity Pressure Visibility Wind Dir Wind Speed Gust Speed Precip Events Conditions
12:13 AM 28.4 °F 22.2 °F 28.4 °F 100% 29.78 in 7.0 mi SW 5.8 mph - N/A   Clear
12:33 AM 28.4 °F 22.2 °F 26.6 °F 93% 29.78 in 7.0 mi SW 5.8 mph - N/A   Clear
12:53 AM 28.4 °F 22.2 °F 28.4 °F 100% 29.78 in 10.0 mi SW 5.8 mph - N/A   Clear
1:14 AM 30.2 °F 23.4 °F 30.2 °F 100% 29.78 in 10.0 mi WSW 6.9 mph - N/A   Clear
1:33 AM 30.2 °F 24.3 °F 28.4 °F 93% 29.78 in 10.0 mi SW 5.8 mph - N/A   Clear
1:54 AM 28.4 °F 22.2 °F 28.4 °F 100% 29.78 in 10.0 mi SW 5.8 mph - N/A   Clear
2:13 AM 26.6 °F 20.0 °F 26.6 °F 100% 29.78 in 7.0 mi SW 5.8 mph - N/A   Clear
2:33 AM 26.6 °F 21.2 °F 26.6 °F 100% 29.78 in 10.0 mi SW 4.6 mph - N/A   Clear
2:54 AM 26.6 °F 19.1 °F 26.6 °F 100% 29.78 in 10.0 mi WSW 6.9 mph - N/A   Clear
3:13 AM 26.6 °F 21.2 °F 26.6 °F 100% 29.78 in 10.0 mi SW 4.6 mph - N/A   Clear
3:34 AM 28.4 °F 23.3 °F 26.6 °F 93% 29.78 in 10.0 mi WSW 4.6 mph - N/A   Clear
3:53 AM 26.6 °F 21.2 °F 26.6 °F 100% 29.78 in 7.0 mi WSW 4.6 mph - N/A   Clear
4:13 AM 26.6 °F 21.2 °F 24.8 °F 93% 29.79 in 5.0 mi SW 4.6 mph - N/A   Clear
4:34 AM 26.6 °F 21.2 °F 26.6 °F 100% 29.79 in 5.0 mi WSW 4.6 mph - N/A   Clear
4:53 AM 26.6 °F - 26.6 °F 100% 29.79 in 1.0 mi Calm Calm - N/A   Clear
5:13 AM 28.4 °F 24.6 °F 26.6 °F 93% 29.79 in 0.5 mi WSW 3.5 mph - N/A Fog Light Freezing Fog
5:33 AM 26.6 °F 22.6 °F 26.6 °F 100% 29.79 in 0.2 mi SSW 3.5 mph - N/A Fog Light Freezing Fog
5:53 AM 24.8 °F - 24.8 °F 100% 29.78 in 0.5 mi Calm Calm - N/A Fog Light Freezing Fog
6:14 AM 26.6 °F 22.6 °F 26.6 °F 100% 29.78 in 0.8 mi SSW 3.5 mph - N/A   Mostly Cloudy
6:33 AM 26.6 °F - 26.6 °F 100% 29.79 in 0.5 mi Calm Calm - N/A Fog Light Freezing Fog
6:54 AM 26.6 °F - 26.6 °F 100% 29.79 in 0.5 mi Calm Calm - N/A Fog Light Freezing Fog
7:13 AM 28.4 °F - 26.6 °F 93% 29.79 in 0.8 mi Calm Calm - N/A   Mist
7:33 AM 28.4 °F - 28.4 °F 100% 29.78 in 5.0 mi Calm Calm - N/A   Clear
7:54 AM 26.6 °F 22.6 °F 26.6 °F 100% 29.79 in 4.0 mi East 3.5 mph - N/A   Clear
8:13 AM 28.4 °F 24.6 °F 28.4 °F 100% 29.78 in 5.0 mi East 3.5 mph - N/A   Clear
8:33 AM 30.2 °F - 30.2 °F 100% 29.78 in 4.0 mi Calm Calm - N/A   Clear
8:54 AM 33.8 °F 30.8 °F 32.0 °F 93% 29.78 in 5.0 mi ESE 3.5 mph - N/A   Clear
9:13 AM 33.8 °F 28.6 °F 33.8 °F 100% 29.78 in 5.0 mi SE 5.8 mph - N/A   Clear
9:33 AM 37.4 °F 32.1 °F 35.6 °F 93% 29.78 in 7.0 mi SSE 6.9 mph - N/A   Clear
9:53 AM 39.2 °F 34.2 °F 37.4 °F 93% 29.78 in 10.0 mi SSE 6.9 mph - N/A   Clear
10:13 AM 41.0 °F 35.8 °F 35.6 °F 81% 29.78 in 10.0 mi SSE 8.1 mph - N/A   Clear
10:33 AM 42.8 °F 38.0 °F 37.4 °F 81% 29.78 in 10.0 mi SSE 8.1 mph - N/A   Clear
10:53 AM 44.6 °F 40.2 °F 37.4 °F 76% 29.77 in 10.0 mi SSE 8.1 mph - N/A   Clear
11:14 AM 46.4 °F 41.5 °F 35.6 °F 66% 29.76 in 10.0 mi SSE 10.4 mph - N/A   Clear
11:33 AM 48.2 °F - 35.6 °F 62% 29.75 in 10.0 mi SSE 10.4 mph - N/A   Clear
11:53 AM 48.2 °F - 35.6 °F 62% 29.74 in 10.0 mi SSE 10.4 mph - N/A   Clear
12:13 PM 51.8 °F - 35.6 °F 54% 29.73 in 10.0 mi South 15.0 mph - N/A   Clear
12:33 PM 51.8 °F - 35.6 °F 54% 29.71 in 10.0 mi SSE 12.7 mph - N/A   Clear
12:54 PM 51.8 °F - 35.6 °F 54% 29.70 in 10.0 mi South 15.0 mph - N/A   Clear
1:13 PM 51.8 °F - 33.8 °F 50% 29.69 in 10.0 mi South 12.7 mph - N/A   Clear
1:33 PM 53.6 °F - 33.8 °F 47% 29.68 in 10.0 mi South 13.8 mph 19.6 mph N/A   Clear
1:54 PM 53.6 °F - 33.8 °F 47% 29.66 in 10.0 mi SSE 16.1 mph 20.7 mph N/A   Clear
2:13 PM 53.6 °F - 33.8 °F 47% 29.65 in 10.0 mi SSE 15.0 mph 18.4 mph N/A   Clear
2:34 PM 53.6 °F - 33.8 °F 47% 29.65 in 10.0 mi South 16.1 mph 25.3 mph N/A   Clear
2:53 PM 53.6 °F - 33.8 °F 47% 29.64 in 10.0 mi South 16.1 mph 21.9 mph N/A   Clear
3:13 PM 51.8 °F - 33.8 °F 50% 29.64 in 10.0 mi SSE 11.5 mph - N/A   Clear
3:33 PM 50.0 °F - 35.6 °F 58% 29.63 in 10.0 mi SSE 12.7 mph - N/A   Clear
3:53 PM 53.6 °F - 35.6 °F 51% 29.62 in 10.0 mi SSE 11.5 mph - N/A   Scattered Clouds
4:14 PM 50.0 °F - 37.4 °F 62% 29.62 in 10.0 mi SSE 11.5 mph - N/A   Scattered Clouds
4:33 PM 50.0 °F - 35.6 °F 58% 29.61 in 10.0 mi South 13.8 mph - N/A   Clear
4:53 PM 48.2 °F - 35.6 °F 62% 29.61 in 10.0 mi South 10.4 mph - N/A   Clear
5:13 PM 44.6 °F 39.2 °F 35.6 °F 71% 29.61 in 10.0 mi South 10.4 mph - N/A   Clear
5:33 PM 44.6 °F 38.8 °F 35.6 °F 71% 29.61 in 10.0 mi SSE 11.5 mph - N/A   Clear
5:54 PM 44.6 °F 38.8 °F 35.6 °F 71% 29.60 in 10.0 mi SSE 11.5 mph - N/A   Clear
6:13 PM 44.6 °F 38.4 °F 35.6 °F 71% 29.60 in 10.0 mi SSE 12.7 mph - N/A   Clear
6:33 PM 44.6 °F 38.1 °F 35.6 °F 71% 29.60 in 10.0 mi SSE 13.8 mph - N/A   Clear
6:53 PM 44.6 °F 38.4 °F 35.6 °F 71% 29.59 in 10.0 mi SSE 12.7 mph - N/A   Clear
7:13 PM 44.6 °F 38.4 °F 35.6 °F 71% 29.59 in 10.0 mi SSE 12.7 mph - N/A   Clear
7:34 PM 44.6 °F 37.4 °F 35.6 °F 71% 29.58 in 10.0 mi SSE 16.1 mph 23.0 mph N/A   Clear
7:53 PM 44.6 °F 37.4 °F 37.4 °F 76% 29.57 in 10.0 mi SSE 16.1 mph - N/A   Clear
8:14 PM 44.6 °F 37.2 °F 37.4 °F 76% 29.57 in 10.0 mi SSE 17.3 mph 23.0 mph N/A   Clear
8:33 PM 44.6 °F 36.9 °F 37.4 °F 76% 29.57 in 10.0 mi South 18.4 mph 21.9 mph N/A   Clear
8:53 PM 44.6 °F 36.4 °F 37.4 °F 76% 29.57 in 10.0 mi South 20.7 mph 25.3 mph N/A   Scattered Clouds
9:14 PM 44.6 °F 36.6 °F 37.4 °F 76% 29.57 in 10.0 mi South 19.6 mph 26.5 mph N/A   Mostly Cloudy
9:33 PM 44.6 °F 36.1 °F 37.4 °F 76% 29.57 in 10.0 mi South 21.9 mph 26.5 mph N/A   Scattered Clouds
9:54 PM 44.6 °F 36.1 °F 35.6 °F 71% 29.56 in 10.0 mi South 21.9 mph 29.9 mph N/A   Clear
10:13 PM 44.6 °F 36.4 °F 35.6 °F 71% 29.55 in 10.0 mi South 20.7 mph 28.8 mph N/A   Clear
10:33 PM 44.6 °F 36.1 °F 35.6 °F 71% 29.54 in 10.0 mi SSE 21.9 mph 28.8 mph N/A   Clear
10:54 PM 44.6 °F 36.1 °F 35.6 °F 71% 29.53 in 10.0 mi South 21.9 mph 28.8 mph N/A   Clear
11:13 PM 44.6 °F 36.4 °F 35.6 °F 71% 29.52 in 10.0 mi South 20.7 mph 27.6 mph N/A   Clear
11:34 PM 42.8 °F 34.5 °F 35.6 °F 76% 29.51 in 10.0 mi SSE 18.4 mph - N/A   Clear
11:53 PM 42.8 °F 34.0 °F 35.6 °F 76% 29.51 in 10.0 mi South 20.7 mph 28.8 mph N/A   Clear